• In Italy
  • List of Countries
  • For 7 days
  • Water Temperature
  • Satellite Maps
  • Weather Map
  • Weather Widgets
  • user-avatar
    Login

    Hourly Weather Veredovo

    Today, 25 September, Tuesday

    Time Temperature Precipitation Wind Pressure Humidity
    00:00 +5°C° 0 mm 5 mps 742 mmHg 90%
    01:00 +5°C° 0 mm 5 mps 743 mmHg 91%
    02:00 +3°C° 0 mm 5 mps 744 mmHg 91%
    03:00 +3°C° 0 mm 5 mps 744 mmHg 91%
    04:00 +3°C° 0 mm 5 mps 745 mmHg 91%
    05:00 +3°C° 0 mm 5 mps 745 mmHg 91%
    06:00 +3°C° 0 mm 6 mps 746 mmHg 88%
    07:00 +3°C° 0 mm 6 mps 746 mmHg 85%
    08:00 +4°C° 0 mm 6 mps 747 mmHg 82%
    09:00 +5°C° 0 mm 6 mps 748 mmHg 77%
    10:00 +7°C° 0 mm 6 mps 748 mmHg 71%
    11:00 +8°C° 0 mm 7 mps 749 mmHg 65%
    12:00 +8°C° 0.1 mm 7 mps 749 mmHg 62%
    13:00 +9°C° 0.1 mm 7 mps 749 mmHg 59%
    14:00 +9°C° 0.1 mm 7 mps 750 mmHg 56%
    15:00 +9°C° 0.1 mm 6 mps 750 mmHg 58%
    16:00 +8°C° 0.1 mm 5 mps 751 mmHg 61%
    17:00 +8°C° 0.1 mm 5 mps 751 mmHg 63%
    18:00 +7°C° 0 mm 4 mps 752 mmHg 65%
    19:00 +6°C° 0 mm 4 mps 753 mmHg 67%
    20:00 +4°C° 0 mm 4 mps 753 mmHg 68%
    21:00 +4°C° 0 mm 4 mps 754 mmHg 72%
    22:00 +4°C° 0 mm 4 mps 755 mmHg 76%
    23:00 +3°C° 0 mm 4 mps 756 mmHg 79%

    Tomorrow, 26 September, Wednesday

    Time Temperature Precipitation Wind Pressure Humidity
    00:00 +3°C° 0 mm 4 mps 756 mmHg 82%
    01:00 +3°C° 0 mm 4 mps 756 mmHg 85%
    02:00 +3°C° 0 mm 4 mps 757 mmHg 88%
    03:00 +2°C° 0 mm 3 mps 757 mmHg 88%
    04:00 +2°C° 0 mm 3 mps 757 mmHg 89%
    05:00 +2°C° 0 mm 3 mps 757 mmHg 89%
    06:00 +3°C° 0 mm 4 mps 757 mmHg 84%
    07:00 +4°C° 0 mm 4 mps 757 mmHg 80%
    08:00 +4°C° 0 mm 4 mps 757 mmHg 75%
    09:00 +6°C° 0 mm 5 mps 757 mmHg 71%
    10:00 +8°C° 0 mm 6 mps 757 mmHg 66%
    11:00 +9°C° 0 mm 6 mps 756 mmHg 62%
    12:00 +10°C° 0 mm 6 mps 756 mmHg 61%
    13:00 +10°C° 0 mm 7 mps 755 mmHg 60%
    14:00 +10°C° 0 mm 7 mps 755 mmHg 60%
    15:00 +9°C° 0.1 mm 7 mps 754 mmHg 63%
    16:00 +9°C° 0.1 mm 7 mps 753 mmHg 67%
    17:00 +8°C° 0.1 mm 7 mps 753 mmHg 71%
    18:00 +6°C° 0.4 mm 8 mps 752 mmHg 75%
    19:00 +6°C° 0.4 mm 8 mps 751 mmHg 79%
    20:00 +5°C° 0.4 mm 9 mps 751 mmHg 83%
    21:00 +5°C° 0.3 mm 9 mps 750 mmHg 84%
    22:00 +5°C° 0.3 mm 9 mps 749 mmHg 85%
    23:00 +5°C° 0.3 mm 9 mps 748 mmHg 87%

    Day after tomorrow, 27 September, Thursday

    Time Temperature Precipitation Wind Pressure Humidity
    00:00 +5°C° 0.2 mm 9 mps 747 mmHg 87%
    01:00 +6°C° 0.2 mm 9 mps 746 mmHg 88%
    02:00 +6°C° 0.2 mm 9 mps 746 mmHg 89%
    03:00 +7°C° 0.3 mm 9 mps 745 mmHg 89%
    04:00 +7°C° 0.3 mm 9 mps 744 mmHg 90%
    05:00 +9°C° 0.3 mm 8 mps 744 mmHg 90%
    06:00 +10°C° 0.3 mm 8 mps 744 mmHg 91%
    07:00 +11°C° 0.3 mm 7 mps 744 mmHg 91%
    08:00 +11°C° 0.3 mm 7 mps 744 mmHg 91%
    09:00 +12°C° 0.3 mm 7 mps 744 mmHg 87%
    10:00 +14°C° 0.3 mm 7 mps 745 mmHg 82%
    11:00 +15°C° 0.3 mm 7 mps 745 mmHg 77%
    12:00 +15°C° 0.1 mm 7 mps 745 mmHg 73%
    13:00 +15°C° 0.1 mm 8 mps 746 mmHg 69%
    14:00 +15°C° 0.1 mm 8 mps 746 mmHg 65%
    15:00 +15°C° 0 mm 7 mps 746 mmHg 68%
    16:00 +14°C° 0 mm 6 mps 746 mmHg 70%
    17:00 +13°C° 0 mm 5 mps 747 mmHg 72%
    18:00 +12°C° 0 mm 4 mps 747 mmHg 76%
    19:00 +11°C° 0 mm 4 mps 747 mmHg 79%
    20:00 +10°C° 0 mm 4 mps 748 mmHg 83%
    21:00 +10°C° 0 mm 4 mps 748 mmHg 85%
    22:00 +8°C° 0 mm 4 mps 748 mmHg 88%
    23:00 +7°C° 0 mm 4 mps 747 mmHg 90%

    28 September, Friday

    Time Temperature Precipitation Wind Pressure Humidity
    00:00 +8°C° 0 mm 4 mps 747 mmHg 91%
    01:00 +9°C° 0 mm 5 mps 746 mmHg 91%
    02:00 +10°C° 0 mm 6 mps 746 mmHg 92%
    03:00 +11°C° 0 mm 6 mps 745 mmHg 90%
    04:00 +11°C° 0 mm 7 mps 744 mmHg 89%
    05:00 +12°C° 0 mm 7 mps 743 mmHg 88%
    06:00 +12°C° 0.1 mm 8 mps 742 mmHg 87%
    07:00 +12°C° 0.1 mm 8 mps 742 mmHg 87%
    08:00 +12°C° 0.1 mm 9 mps 741 mmHg 86%
    09:00 +12°C° 0.9 mm 8 mps 741 mmHg 86%
    10:00 +13°C° 0.9 mm 8 mps 741 mmHg 86%
    11:00 +13°C° 0.9 mm 8 mps 741 mmHg 87%
    12:00 +13°C° 0.2 mm 8 mps 741 mmHg 80%
    13:00 +13°C° 0.2 mm 8 mps 742 mmHg 74%
    14:00 +12°C° 0.2 mm 8 mps 742 mmHg 68%
    15:00 +11°C° 0 mm 7 mps 743 mmHg 70%
    16:00 +10°C° 0 mm 5 mps 744 mmHg 71%
    17:00 +10°C° 0 mm 4 mps 745 mmHg 73%
    18:00 +9°C° 0 mm 3 mps 745 mmHg 77%
    19:00 +8°C° 0 mm 2 mps 746 mmHg 81%
    20:00 +6°C° 0 mm 2 mps 746 mmHg 85%
    21:00 +7°C° 0 mm 1 mps 747 mmHg 85%
    22:00 +7°C° 0 mm 1 mps 747 mmHg 85%
    23:00 +7°C° 0 mm 1 mps 748 mmHg 85%

    29 September, Saturday

    Time Temperature Precipitation Wind Pressure Humidity
    00:00 +7°C° 0 mm 1 mps 748 mmHg 85%
    01:00 +6°C° 0 mm 2 mps 748 mmHg 85%
    02:00 +6°C° 0 mm 2 mps 749 mmHg 85%
    03:00 +6°C° 0.1 mm 2 mps 749 mmHg 87%
    04:00 +5°C° 0.1 mm 2 mps 749 mmHg 89%
    05:00 +4°C° 0.1 mm 3 mps 750 mmHg 91%
    06:00 +4°C° 0 mm 3 mps 750 mmHg 88%
    07:00 +4°C° 0 mm 3 mps 751 mmHg 84%
    08:00 +4°C° 0 mm 4 mps 752 mmHg 81%
    09:00 +5°C° 0 mm 4 mps 752 mmHg 72%
    10:00 +6°C° 0 mm 4 mps 753 mmHg 63%
    11:00 +7°C° 0 mm 4 mps 753 mmHg 54%
    12:00 +8°C° 0 mm 4 mps 753 mmHg 51%
    13:00 +8°C° 0 mm 4 mps 754 mmHg 48%
    14:00 +10°C° 0 mm 4 mps 754 mmHg 46%
    15:00 +9°C° 0 mm 3 mps 754 mmHg 50%
    16:00 +9°C° 0 mm 2 mps 754 mmHg 55%
    17:00 +8°C° 0 mm 2 mps 754 mmHg 60%
    18:00 +8°C° 0 mm 1 mps 755 mmHg 63%
    19:00 +7°C° 0 mm 1 mps 755 mmHg 66%
    20:00 +5°C° 0 mm 1 mps 756 mmHg 69%
    21:00 +5°C° 0 mm 1 mps 756 mmHg 70%
    22:00 +5°C° 0 mm 1 mps 756 mmHg 72%
    23:00 +5°C° 0 mm 1 mps 756 mmHg 73%

    30 September, Sunday

    Time Temperature Precipitation Wind Pressure Humidity
    00:00 +4°C° 0 mm 1 mps 756 mmHg 75%
    01:00 +3°C° 0 mm 2 mps 756 mmHg 76%
    02:00 +3°C° 0 mm 2 mps 756 mmHg 78%
    03:00 +3°C° 0 mm 2 mps 756 mmHg 79%
    04:00 +3°C° 0 mm 2 mps 756 mmHg 80%
    05:00 +2°C° 0 mm 3 mps 756 mmHg 81%
    06:00 +2°C° 0 mm 3 mps 756 mmHg 78%
    07:00 +3°C° 0 mm 3 mps 756 mmHg 75%
    08:00 +4°C° 0 mm 4 mps 756 mmHg 73%
    09:00 +6°C° 0 mm 4 mps 756 mmHg 67%
    10:00 +7°C° 0 mm 4 mps 756 mmHg 62%
    11:00 +9°C° 0 mm 5 mps 756 mmHg 57%
    12:00 +10°C° 0 mm 4 mps 756 mmHg 55%
    13:00 +11°C° 0 mm 4 mps 755 mmHg 54%
    14:00 +11°C° 0 mm 4 mps 755 mmHg 52%
    15:00 +11°C° 0 mm 4 mps 755 mmHg 56%
    16:00 +10°C° 0 mm 3 mps 754 mmHg 59%
    17:00 +9°C° 0 mm 3 mps 754 mmHg 63%
    18:00 +8°C° 0 mm 3 mps 754 mmHg 64%
    19:00 +7°C° 0 mm 3 mps 754 mmHg 66%
    20:00 +6°C° 0 mm 2 mps 754 mmHg 67%
    21:00 +4°C° 0 mm 3 mps 754 mmHg 66%
    22:00 +4°C° 0 mm 3 mps 753 mmHg 65%
    23:00 +4°C° 0 mm 3 mps 753 mmHg 64%
    Show more